Location: Austin
(30.3000°N, 97.7500°W)
Time: 22:33:12
(UTC-06:00)

CZ-2D R/B - Pass Details

Date: 03 December 2025
Orbit: 404 x 413 km, 97.4° (Epoch: 06 December)

Event Time Altitude Azimuth Distance (km) Brightness Sun altitude
Rises 06:43:22 0° 15° (NNE) 2,342 6.5 -6.4°
Reaches altitude 10° 06:45:23 10° 18° (NNE) 1,479 5.5 -6.0°
Maximum altitude 06:48:30 63° 100° (E) 462 3.3 -5.4°
Drops below altitude 10° 06:51:38 10° 183° (S) 1,474 5.8 -4.8°
Sets 06:53:37 0° 186° (S) 2,333 6.8 -4.4°
